This is the latest recevied weather packets stored in our database for station/object KM19. If no packets are shown the sender has not sent any weather packets the latest 1 day(s).
| Time | Temp. | Humidity | Pressure | Rain* | Wind** | Luminosity | Snow |
|---|---|---|---|---|---|---|---|
| 1778040816 | 12.78° C | 93% | 1008.5 hPa | - | 7.6 m/s, 360° | - | - |
| 1778040334 | 12.78° C | 93% | 1008.5 hPa | - | 7.6 m/s, 360° | - | - |
| 1778039611 | 15° C | 87% | 1008.1 hPa | - | 8.05 m/s, 350° | - | - |
| 1778039018 | 15° C | 87% | 1008.1 hPa | - | 8.05 m/s, 350° | - | - |
| 1778038417 | 15° C | 87% | 1008.1 hPa | - | 8.05 m/s, 350° | - | - |
| 1778037816 | 15° C | 87% | 1008.1 hPa | - | 8.05 m/s, 350° | - | - |
| 1778037212 | 15° C | 87% | 1008.1 hPa | - | 8.05 m/s, 350° | - | - |
| 1778036611 | 15° C | 87% | 1008.1 hPa | - | 8.05 m/s, 350° | - | - |
| 1778036012 | 15.56° C | 93% | 1007.5 hPa | - | 7.6 m/s, 20° | - | - |
| 1778035412 | 20° C | 93% | 1006.8 hPa | - | 0 m/s | - | - |
| 1778034811 | 20° C | 93% | 1006.8 hPa | - | 0 m/s | - | - |
| 1778034213 | 20° C | 93% | 1006.4 hPa | - | 1.79 m/s, 170° | - | - |
| 1778033613 | 20° C | 93% | 1006.4 hPa | - | 1.79 m/s, 170° | - | - |
| 1778033014 | 20° C | 93% | 1006.4 hPa | - | 1.79 m/s, 170° | - | - |
| 1778032414 | 20.56° C | 88% | 1006.4 hPa | - | 1.34 m/s, 190° | - | - |
| 1778031813 | 20.56° C | 88% | 1006.4 hPa | - | 1.34 m/s, 190° | - | - |
| 1778031213 | 20.56° C | 88% | 1006.1 hPa | - | 2.24 m/s, 190° | - | - |
| 1778030612 | 20.56° C | 88% | 1006.1 hPa | - | 2.24 m/s, 190° | - | - |
| 1778030014 | 20.56° C | 88% | 1006.1 hPa | - | 2.24 m/s, 190° | - | - |
| 1778029411 | 20.56° C | 88% | 1006.1 hPa | - | 2.24 m/s, 190° | - | - |
| 1778028814 | 20.56° C | 88% | 1006.1 hPa | - | 4.47 m/s, 200° | - | - |
| 1778028212 | 20.56° C | 88% | 1006.1 hPa | - | 4.47 m/s, 200° | - | - |
| 1778027612 | 20.56° C | 88% | 1006.1 hPa | - | 4.47 m/s, 200° | - | - |
| 1778027011 | 20.56° C | 88% | 1006.1 hPa | - | 4.47 m/s, 200° | - | - |
| 1778026417 | 20.56° C | 88% | 1006.1 hPa | - | 4.47 m/s, 200° | - | - |
* Rain since midnight (hover to see other rain measurements)
** Current wind speed in m/s (hover to see current wind gust speed)